PulseSat

PulseSat

COSMOS 2433 (720)

Last updated on Jan. 18, 2019, 3 a.m. UTC

1 32275U 07052A   19017.32072645 -.00000002  00000-0  10000-3 0  9997
2 32275  65.7858  46.1856 0005068 259.3434 120.9210  2.13104543 87394
UTC
Height (km)
Latitude
Longitude
Inclination
Orbital Period

Next 30 passes for location: Hong Kong

Rise time Rise Azimuth (degrees) Set time Set Azimuth (degrees) Duration Max altitude (degrees)

No matching passes for this satellites

PulseSat

PulseSat is the new satellites software and hardware trackering solution by Pulsely.
Satellite Two Line Element Set source: US Air Force Space Command

Download PulseSat for iOS
© 2017 Pulsely Limited